Regional Weather Roundup
Issued by NWS

Home | Current Version | Previous Version | Text Only | Print | Product List | Glossary On
Versions: 1 2 3 4 5 6 7 8 9 10 11 12 13 14 15 16 17 18 19 20 21 22 23 24 25 26 27 28 29 30 31 32 33 34 35 36 37 38 39 40 41 42 43 44 45 46 47 48 49 50
000
ASUS43 KLMK 280410
RWRKY
KENTUCKY REGIONAL WEATHER ROUNDUP
NATIONAL WEATHER SERVICE LOUISVILLE KY
1100 PM EST TUE JAN 27 2015

NOTE "FAIR" INDICATES FEW OR NO CLOUDS BELOW 12,000 FEET
WITH NO SIGNIFICANT WEATHER AND/OR OBSTRUCTIONS TO VISIBILITY.

KYZ001>023-026-027-061>063-070>075-280500-
WESTERN AND SOUTH CENTRAL KENTUCKY

CITY           SKY/WX    TMP DP  RH WIND       PRES   REMARKS
PADUCAH        CLEAR     33  27  78 NE5       30.24R WCI  29
HENDERSON      CLOUDY    34  28  80 N3        30.25R
OWENSBORO      CLOUDY    33  29  86 NE6       30.25S WCI  27
HOPKINSVILLE   CLOUDY    34  29  85 N7        30.23S WCI  27
BOWLING GREEN  CLOUDY    33  29  85 N3        30.24R
GLASGOW        CLOUDY    32  28  86 N6        30.23R WCI  26
$$

KYZ024-025-028>034-038-045-046-053-280500-
NORTH CENTRAL KENTUCKY

CITY           SKY/WX    TMP DP  RH WIND       PRES   REMARKS
LOUISVILLE/SDF CLEAR     27  13  55 NE3       30.25S
LOUISVILLE/LOU CLEAR     27  13  55 NE3       30.25F
FORT KNOX      PTCLDY    27  14  59 NE2       30.22S
$$

KYZ035>037-039>044-047>052-055>060-089>105-280500-
NORTHEAST KENTUCKY

CITY           SKY/WX    TMP DP  RH WIND       PRES   REMARKS
LEXINGTON      CLEAR     22  11  62 N9        30.23R WCI  12
COVINGTON      CLEAR     20  12  71 CALM      30.24R
FRANKFORT      CLEAR     24  13  62 N5        30.23R WCI  18
$$

KYZ054-064>069-076>088-106>120-280500-
SOUTHEAST KENTUCKY

CITY           SKY/WX    TMP DP  RH WIND       PRES   REMARKS
JACKSON        CLEAR     21  11  65 VRB3      30.17R
LONDON         CLEAR     27  12  53 N3        30.19R
SOMERSET       CLEAR     27  18  69 N3        30.22S
MIDDLESBORO    CLOUDY    29  20  71 N7        30.18R WCI  21
MONTICELLO     CLOUDY    31  25  78 N6        30.24R WCI  25
$$



USA.gov is the U.S. government's official web portal to all federal, state and local government web resources and services.